When you browse on this site, cookies collect data to enhance your experience and personalize the content and advertising you see.
Visit our Privacy Policy to learn more. By continuing to use the site, you agree to this use of cookies and data.
  • In Österreich
  • Länderverzeichnis
  • Für 7 Tage
  • Wassertemperatur
  • Satellitenkarten
  • Wetterkarte
  • News
  • Widgets
  • user-avatar
    Anmelden

    Stündliche Wetter Concord

    Heute, 20 April, Samstag

    Zeit Temperatur Niederschläge Wind Luftdruck Luftfeuchtigkeit
    00:00 +13°C° 0 mm 4 m/S 757 mmHg 83%
    01:00 +13°C° 0 mm 4 m/S 756 mmHg 85%
    02:00 +13°C° 0 mm 4 m/S 757 mmHg 85%
    03:00 +13°C° 0 mm 4 m/S 757 mmHg 85%
    04:00 +13°C° 0 mm 4 m/S 757 mmHg 86%
    05:00 +13°C° 0 mm 4 m/S 757 mmHg 85%
    06:00 +14°C° 0 mm 4 m/S 757 mmHg 85%
    07:00 +14°C° 0 mm 4 m/S 757 mmHg 85%
    08:00 +15°C° 0 mm 4 m/S 758 mmHg 81%
    09:00 +15°C° 0 mm 5 m/S 758 mmHg 76%
    10:00 +16°C° 0 mm 5 m/S 758 mmHg 72%
    11:00 +17°C° 0 mm 5 m/S 758 mmHg 66%
    12:00 +19°C° 0 mm 6 m/S 758 mmHg 60%
    13:00 +21°C° 0 mm 6 m/S 758 mmHg 54%
    14:00 +20°C° 0 mm 6 m/S 758 mmHg 53%
    15:00 +20°C° 0 mm 6 m/S 758 mmHg 53%
    16:00 +20°C° 0 mm 6 m/S 758 mmHg 53%
    17:00 +17°C° 0 mm 5 m/S 758 mmHg 58%
    18:00 +16°C° 0 mm 5 m/S 758 mmHg 63%
    19:00 +14°C° 0 mm 4 m/S 759 mmHg 68%
    20:00 +13°C° 0 mm 3 m/S 759 mmHg 70%
    21:00 +13°C° 0 mm 3 m/S 760 mmHg 72%
    22:00 +13°C° 0 mm 2 m/S 760 mmHg 74%
    23:00 +13°C° 0 mm 2 m/S 760 mmHg 75%

    Morgen, 21 April, Sonntag

    Zeit Temperatur Niederschläge Wind Luftdruck Luftfeuchtigkeit
    00:00 +13°C° 0 mm 2 m/S 760 mmHg 77%
    01:00 +12°C° 0 mm 1 m/S 760 mmHg 79%
    02:00 +12°C° 0 mm 1 m/S 760 mmHg 80%
    03:00 +12°C° 0 mm 1 m/S 761 mmHg 81%
    04:00 +12°C° 0 mm 1 m/S 761 mmHg 82%
    05:00 +12°C° 0 mm 1 m/S 761 mmHg 80%
    06:00 +13°C° 0 mm 1 m/S 761 mmHg 78%
    07:00 +14°C° 0 mm 1 m/S 761 mmHg 76%
    08:00 +16°C° 0 mm 1 m/S 762 mmHg 64%
    09:00 +18°C° 0 mm 2 m/S 762 mmHg 53%
    10:00 +20°C° 0 mm 3 m/S 762 mmHg 41%
    11:00 +22°C° 0 mm 3 m/S 762 mmHg 37%
    12:00 +24°C° 0 mm 3 m/S 761 mmHg 33%
    13:00 +26°C° 0 mm 4 m/S 761 mmHg 29%
    14:00 +26°C° 0 mm 4 m/S 761 mmHg 32%
    15:00 +26°C° 0 mm 4 m/S 760 mmHg 35%
    16:00 +26°C° 0 mm 4 m/S 760 mmHg 37%
    17:00 +24°C° 0 mm 3 m/S 760 mmHg 46%
    18:00 +20°C° 0 mm 3 m/S 760 mmHg 56%
    19:00 +18°C° 0 mm 2 m/S 760 mmHg 65%
    20:00 +17°C° 0 mm 2 m/S 761 mmHg 68%
    21:00 +16°C° 0 mm 2 m/S 761 mmHg 71%
    22:00 +16°C° 0 mm 2 m/S 762 mmHg 75%
    23:00 +15°C° 0 mm 2 m/S 762 mmHg 76%

    übermorgen, 22 April, Montag

    Zeit Temperatur Niederschläge Wind Luftdruck Luftfeuchtigkeit
    00:00 +15°C° 0 mm 1 m/S 761 mmHg 77%
    01:00 +14°C° 0 mm 1 m/S 761 mmHg 78%
    02:00 +14°C° 0 mm 1 m/S 761 mmHg 75%
    03:00 +14°C° 0 mm 1 m/S 761 mmHg 73%
    04:00 +13°C° 0 mm 1 m/S 761 mmHg 71%
    05:00 +14°C° 0 mm 1 m/S 762 mmHg 65%
    06:00 +15°C° 0 mm 1 m/S 762 mmHg 59%
    07:00 +16°C° 0 mm 1 m/S 762 mmHg 53%
    08:00 +19°C° 0 mm 1 m/S 762 mmHg 46%
    09:00 +21°C° 0 mm 2 m/S 762 mmHg 39%
    10:00 +24°C° 0 mm 3 m/S 762 mmHg 32%
    11:00 +26°C° 0 mm 3 m/S 762 mmHg 29%
    12:00 +28°C° 0 mm 3 m/S 761 mmHg 26%
    13:00 +30°C° 0 mm 4 m/S 761 mmHg 23%
    14:00 +30°C° 0 mm 4 m/S 761 mmHg 24%
    15:00 +30°C° 0 mm 3 m/S 760 mmHg 25%
    16:00 +31°C° 0 mm 3 m/S 760 mmHg 26%
    17:00 +28°C° 0 mm 3 m/S 760 mmHg 33%
    18:00 +26°C° 0 mm 2 m/S 760 mmHg 40%
    19:00 +24°C° 0 mm 1 m/S 760 mmHg 46%
    20:00 +23°C° 0 mm 1 m/S 760 mmHg 49%
    21:00 +22°C° 0 mm 1 m/S 760 mmHg 52%
    22:00 +21°C° 0 mm 1 m/S 761 mmHg 55%
    23:00 +20°C° 0 mm 1 m/S 760 mmHg 56%

    23 April, Dienstag

    Zeit Temperatur Niederschläge Wind Luftdruck Luftfeuchtigkeit
    00:00 +20°C° 0 mm 1 m/S 760 mmHg 56%
    01:00 +20°C° 0 mm 1 m/S 760 mmHg 57%
    02:00 +19°C° 0 mm 1 m/S 760 mmHg 57%
    03:00 +19°C° 0 mm 1 m/S 760 mmHg 58%
    04:00 +19°C° 0 mm 1 m/S 760 mmHg 58%
    05:00 +19°C° 0 mm 1 m/S 760 mmHg 58%
    06:00 +20°C° 0 mm 1 m/S 760 mmHg 57%
    07:00 +20°C° 0 mm 1 m/S 760 mmHg 57%
    08:00 +22°C° 0 mm 1 m/S 760 mmHg 52%
    09:00 +24°C° 0 mm 2 m/S 760 mmHg 47%
    10:00 +26°C° 0 mm 2 m/S 760 mmHg 41%
    11:00 +28°C° 0 mm 2 m/S 760 mmHg 39%
    12:00 +29°C° 0 mm 2 m/S 760 mmHg 36%
    13:00 +31°C° 0 mm 2 m/S 759 mmHg 33%
    14:00 +31°C° 0 mm 2 m/S 759 mmHg 33%
    15:00 +32°C° 0 mm 2 m/S 758 mmHg 33%
    16:00 +32°C° 0 mm 2 m/S 758 mmHg 33%
    17:00 +30°C° 0 mm 1 m/S 758 mmHg 39%
    18:00 +28°C° 0 mm 1 m/S 758 mmHg 45%
    19:00 +25°C° 0 mm 1 m/S 758 mmHg 52%
    20:00 +24°C° 0 mm 1 m/S 759 mmHg 55%
    21:00 +23°C° 0 mm 1 m/S 759 mmHg 59%
    22:00 +22°C° 0 mm 1 m/S 759 mmHg 62%
    23:00 +22°C° 0 mm 1 m/S 759 mmHg 64%

    24 April, Mittwoch

    Zeit Temperatur Niederschläge Wind Luftdruck Luftfeuchtigkeit
    00:00 +21°C° 0 mm 1 m/S 759 mmHg 65%
    01:00 +21°C° 0 mm 1 m/S 759 mmHg 67%
    02:00 +18°C° 0 mm 0 m/S 759 mmHg 68%
    03:00 +18°C° 0 mm 0 m/S 759 mmHg 69%
    04:00 +17°C° 0 mm 0 m/S 759 mmHg 70%
    05:00 +18°C° 0 mm 0 m/S 759 mmHg 68%
    06:00 +19°C° 0 mm 0 m/S 759 mmHg 66%
    07:00 +20°C° 0 mm 0 m/S 759 mmHg 63%
    08:00 +24°C° 0 mm 1 m/S 760 mmHg 57%
    09:00 +26°C° 0 mm 1 m/S 760 mmHg 51%
    10:00 +29°C° 0 mm 1 m/S 760 mmHg 44%
    11:00 +30°C° 0 mm 1 m/S 759 mmHg 41%
    12:00 +32°C° 0 mm 1 m/S 759 mmHg 38%
    13:00 +34°C° 0 mm 1 m/S 759 mmHg 34%
    14:00 +34°C° 0 mm 1 m/S 758 mmHg 35%
    15:00 +33°C° 0 mm 1 m/S 758 mmHg 35%
    16:00 +34°C° 0 mm 2 m/S 757 mmHg 36%
    17:00 +31°C° 0 mm 2 m/S 757 mmHg 42%
    18:00 +29°C° 0 mm 2 m/S 758 mmHg 48%
    19:00 +27°C° 0 mm 2 m/S 758 mmHg 54%
    20:00 +26°C° 0 mm 2 m/S 758 mmHg 57%
    21:00 +25°C° 0 mm 1 m/S 758 mmHg 60%
    22:00 +24°C° 0 mm 1 m/S 758 mmHg 63%
    23:00 +23°C° 0 mm 1 m/S 758 mmHg 64%

    25 April, Donnerstag

    Zeit Temperatur Niederschläge Wind Luftdruck Luftfeuchtigkeit
    00:00 +22°C° 0 mm 1 m/S 758 mmHg 65%
    01:00 +22°C° 0 mm 1 m/S 757 mmHg 66%
    02:00 +21°C° 0 mm 1 m/S 757 mmHg 67%
    03:00 +21°C° 0 mm 1 m/S 757 mmHg 68%
    04:00 +20°C° 0 mm 1 m/S 757 mmHg 69%
    05:00 +19°C° 0 mm 0 m/S 758 mmHg 66%
    06:00 +20°C° 0 mm 0 m/S 758 mmHg 64%
    07:00 +20°C° 0 mm 0 m/S 758 mmHg 62%
    08:00 +23°C° 0 mm 0 m/S 758 mmHg 55%
    09:00 +25°C° 0 mm 0 m/S 758 mmHg 48%
    10:00 +28°C° 0 mm 0 m/S 758 mmHg 41%
    11:00 +31°C° 0 mm 1 m/S 758 mmHg 38%
    12:00 +32°C° 0 mm 1 m/S 757 mmHg 34%
    13:00 +34°C° 0 mm 2 m/S 757 mmHg 30%
    14:00 +34°C° 0 mm 2 m/S 757 mmHg 31%
    15:00 +33°C° 0 mm 3 m/S 756 mmHg 31%
    16:00 +33°C° 0 mm 4 m/S 756 mmHg 32%
    17:00 +30°C° 0 mm 3 m/S 756 mmHg 37%
    18:00 +27°C° 0 mm 3 m/S 756 mmHg 42%
    19:00 +25°C° 0 mm 2 m/S 757 mmHg 47%
    20:00 +24°C° 0 mm 2 m/S 757 mmHg 51%
    21:00 +23°C° 0 mm 2 m/S 757 mmHg 55%
    22:00 +20°C° 0 mm 2 m/S 757 mmHg 59%
    23:00 +20°C° 0 mm 2 m/S 757 mmHg 60%
    Mehr zeigen